Time,TemperatureF,DewpointF,PressureIn,WindDirection,WindDirectionDegrees,WindSpeedMPH,WindSpeedGustMPH,Humidity,HourlyPrecipIn,Conditions,Clouds,dailyrainin,SoftwareType,DateUTC
2013-03-18 00:00:00,30.2,22.9,30.10,East,87,2.0,-999.0,74,0.00,,,0.00,Wunderground v.1.15,2013-03-18 04:00:00,
2013-03-18 00:01:00,30.3,23.0,30.10,NE,51,2.0,-999.0,74,0.00,,,0.00,Wunderground v.1.15,2013-03-18 04:01:00,
2013-03-18 00:02:00,30.2,22.9,30.10,ENE,69,1.0,-999.0,74,0.00,,,0.00,Wunderground v.1.15,2013-03-18 04:02:00,
2013-03-18 00:08:00,30.3,23.0,30.10,East,96,2.0,-999.0,74,0.00,,,0.00,Wunderground v.1.15,2013-03-18 04:08:00,
2013-03-18 00:13:00,30.3,23.0,30.10,NE,49,2.0,-999.0,74,0.00,,,0.00,Wunderground v.1.15,2013-03-18 04:13:00,
2013-03-18 00:18:00,30.4,23.1,30.10,NNE,19,2.0,-999.0,74,0.00,,,0.00,Wunderground v.1.15,2013-03-18 04:18:00,
2013-03-18 00:24:00,30.4,23.1,30.09,SSE,158,1.0,-999.0,74,0.00,,,0.00,Wunderground v.1.15,2013-03-18 04:24:00,
2013-03-18 00:29:00,30.4,23.1,30.09,East,86,1.0,-999.0,74,0.00,,,0.00,Wunderground v.1.15,2013-03-18 04:29:00,
2013-03-18 00:34:00,30.5,23.2,30.09,East,81,2.0,-999.0,74,0.00,,,0.00,Wunderground v.1.15,2013-03-18 04:34:00,
2013-03-18 00:39:00,30.5,23.2,30.08,NE,49,2.0,-999.0,74,0.00,,,0.00,Wunderground v.1.15,2013-03-18 04:39:00,
2013-03-18 00:45:00,30.5,23.2,30.09,East,80,2.0,-999.0,74,0.00,,,0.00,Wunderground v.1.15,2013-03-18 04:45:00,
2013-03-18 00:50:00,30.5,23.2,30.08,NE,51,2.0,-999.0,74,0.00,,,0.00,Wunderground v.1.15,2013-03-18 04:50:00,
2013-03-18 00:56:00,30.5,23.2,30.08,NNE,28,3.0,-999.0,74,0.00,,,0.00,Wunderground v.1.15,2013-03-18 04:56:00,
2013-03-18 01:01:00,30.5,23.2,30.08,East,98,2.0,-999.0,74,0.00,,,0.00,Wunderground v.1.15,2013-03-18 05:01:00,
2013-03-18 01:07:00,30.5,23.5,30.07,ENE,78,1.0,-999.0,75,0.00,,,0.00,Wunderground v.1.15,2013-03-18 05:07:00,
2013-03-18 01:13:00,30.5,23.5,30.07,East,85,1.0,-999.0,75,0.00,,,0.00,Wunderground v.1.15,2013-03-18 05:13:00,
2013-03-18 01:18:00,30.5,23.5,30.08,North,360,1.0,-999.0,75,0.00,,,0.00,Wunderground v.1.15,2013-03-18 05:18:00,
2013-03-18 01:24:00,30.5,23.5,30.07,ESE,122,1.0,-999.0,75,0.00,,,0.00,Wunderground v.1.15,2013-03-18 05:24:00,
2013-03-18 01:29:00,30.5,23.5,30.07,SSE,161,1.0,-999.0,75,0.00,,,0.00,Wunderground v.1.15,2013-03-18 05:29:00,
2013-03-18 01:34:00,30.6,23.6,30.07,ESE,111,2.0,-999.0,75,0.00,,,0.00,Wunderground v.1.15,2013-03-18 05:34:00,
2013-03-18 01:40:00,30.6,23.6,30.07,SE,140,1.0,-999.0,75,0.00,,,0.00,Wunderground v.1.15,2013-03-18 05:40:00,
2013-03-18 01:46:00,30.6,23.6,30.06,NW,306,1.0,-999.0,75,0.00,,,0.00,Wunderground v.1.15,2013-03-18 05:46:00,
2013-03-18 01:52:00,30.6,23.6,30.06,ENE,65,1.0,-999.0,75,0.00,,,0.00,Wunderground v.1.15,2013-03-18 05:52:00,
2013-03-18 01:58:00,30.7,23.7,30.05,East,101,2.0,-999.0,75,0.00,,,0.00,Wunderground v.1.15,2013-03-18 05:58:00,
2013-03-18 02:04:00,30.7,23.7,30.05,ENE,71,1.0,-999.0,75,0.00,,,0.00,Wunderground v.1.15,2013-03-18 06:04:00,
2013-03-18 02:10:00,30.8,23.8,30.05,ENE,63,1.0,-999.0,75,0.00,,,0.00,Wunderground v.1.15,2013-03-18 06:10:00,
2013-03-18 02:16:00,30.8,23.8,30.05,East,100,1.0,-999.0,75,0.00,,,0.00,Wunderground v.1.15,2013-03-18 06:16:00,
2013-03-18 02:21:00,30.9,23.9,30.06,SSE,166,1.0,-999.0,75,0.00,,,0.00,Wunderground v.1.15,2013-03-18 06:21:00,
2013-03-18 02:27:00,30.9,23.9,30.05,ENE,65,1.0,-999.0,75,0.00,,,0.00,Wunderground v.1.15,2013-03-18 06:27:00,
2013-03-18 02:32:00,31.0,24.0,30.05,East,90,1.0,-999.0,75,0.00,,,0.00,Wunderground v.1.15,2013-03-18 06:32:00,
2013-03-18 02:38:00,31.1,24.1,30.05,East,95,1.0,-999.0,75,0.00,,,0.00,Wunderground v.1.15,2013-03-18 06:38:00,
2013-03-18 02:44:00,31.1,24.1,30.05,SSE,157,1.0,-999.0,75,0.00,,,0.00,Wunderground v.1.15,2013-03-18 06:44:00,
2013-03-18 02:50:00,31.2,24.2,30.04,SSE,164,1.0,-999.0,75,0.00,,,0.00,Wunderground v.1.15,2013-03-18 06:50:00,
2013-03-18 02:56:00,31.2,24.2,30.04,SSE,153,1.0,-999.0,75,0.00,,,0.00,Wunderground v.1.15,2013-03-18 06:56:00,
2013-03-18 03:02:00,31.2,24.2,30.04,ENE,74,1.0,-999.0,75,0.00,,,0.00,Wunderground v.1.15,2013-03-18 07:02:00,
2013-03-18 03:08:00,31.3,24.0,30.04,East,82,1.0,-999.0,74,0.00,,,0.00,Wunderground v.1.15,2013-03-18 07:08:00,
2013-03-18 03:14:00,31.4,24.1,30.04,East,85,1.0,-999.0,74,0.00,,,0.00,Wunderground v.1.15,2013-03-18 07:14:00,
2013-03-18 03:20:00,31.5,24.2,30.04,ENE,71,1.0,-999.0,74,0.00,,,0.00,Wunderground v.1.15,2013-03-18 07:20:00,
2013-03-18 03:25:00,31.5,24.2,30.04,East,96,1.0,-999.0,74,0.00,,,0.00,Wunderground v.1.15,2013-03-18 07:25:00,
2013-03-18 03:30:00,31.5,24.2,30.04,East,96,1.0,-999.0,74,0.00,,,0.00,Wunderground v.1.15,2013-03-18 07:30:00,
2013-03-18 03:36:00,31.6,24.3,30.03,East,79,1.0,-999.0,74,0.00,,,0.00,Wunderground v.1.15,2013-03-18 07:36:00,
2013-03-18 03:42:00,31.6,24.3,30.03,East,92,0.0,-999.0,74,0.00,,,0.00,Wunderground v.1.15,2013-03-18 07:42:00,
2013-03-18 03:48:00,31.7,24.4,30.03,ESE,109,1.0,-999.0,74,0.00,,,0.00,Wunderground v.1.15,2013-03-18 07:48:00,
2013-03-18 03:53:00,31.7,24.7,30.02,ESE,109,1.0,-999.0,75,0.00,,,0.00,Wunderground v.1.15,2013-03-18 07:53:00,
2013-03-18 03:59:00,31.8,24.8,30.02,ESE,119,1.0,-999.0,75,0.00,,,0.00,Wunderground v.1.15,2013-03-18 07:59:00,
2013-03-18 04:05:00,31.8,24.8,30.01,SE,135,1.0,-999.0,75,0.00,,,0.00,Wunderground v.1.15,2013-03-18 08:05:00,
2013-03-18 04:11:00,31.9,24.9,30.01,East,85,1.0,-999.0,75,0.00,,,0.00,Wunderground v.1.15,2013-03-18 08:11:00,
2013-03-18 04:17:00,31.9,25.2,30.00,SSE,157,1.0,-999.0,76,0.00,,,0.00,Wunderground v.1.15,2013-03-18 08:17:00,
2013-03-18 04:23:00,31.9,25.5,30.00,SSE,150,1.0,-999.0,77,0.00,,,0.00,Wunderground v.1.15,2013-03-18 08:23:00,
2013-03-18 04:28:00,31.9,25.8,30.00,ESE,115,1.0,-999.0,78,0.00,,,0.00,Wunderground v.1.15,2013-03-18 08:28:00,
2013-03-18 04:34:00,31.9,25.8,29.99,ESE,105,0.0,-999.0,78,0.00,,,0.00,Wunderground v.1.15,2013-03-18 08:34:00,
2013-03-18 04:40:00,31.8,26.0,29.99,East,88,1.0,-999.0,79,0.00,,,0.00,Wunderground v.1.15,2013-03-18 08:40:00,
2013-03-18 04:46:00,31.8,26.3,29.98,SE,128,1.0,-999.0,80,0.00,,,0.00,Wunderground v.1.15,2013-03-18 08:46:00,
2013-03-18 04:52:00,31.7,26.5,29.98,NE,54,1.0,-999.0,81,0.00,,,0.00,Wunderground v.1.15,2013-03-18 08:52:00,
2013-03-18 04:57:00,31.7,26.8,29.97,SSE,156,1.0,-999.0,82,0.00,,,0.00,Wunderground v.1.15,2013-03-18 08:57:00,
2013-03-18 05:03:00,31.7,27.1,29.97,SSE,165,1.0,-999.0,83,0.00,,,0.00,Wunderground v.1.15,2013-03-18 09:03:00,
2013-03-18 05:08:00,31.7,27.1,29.97,SSE,151,2.0,-999.0,83,0.00,,,0.00,Wunderground v.1.15,2013-03-18 09:08:00,
2013-03-18 05:14:00,31.7,27.4,29.97,SE,136,2.0,-999.0,84,0.00,,,0.00,Wunderground v.1.15,2013-03-18 09:14:00,
2013-03-18 05:19:00,31.8,27.8,29.96,ESE,108,1.0,-999.0,85,0.00,,,0.00,Wunderground v.1.15,2013-03-18 09:19:00,
2013-03-18 05:24:00,31.8,27.8,29.96,East,101,1.0,-999.0,85,0.00,,,0.00,Wunderground v.1.15,2013-03-18 09:24:00,
2013-03-18 05:30:00,31.9,28.2,29.95,SSE,148,2.0,-999.0,86,0.00,,,0.00,Wunderground v.1.15,2013-03-18 09:30:00,
2013-03-18 05:36:00,32.0,28.6,29.95,SE,142,2.0,-999.0,87,0.00,,,0.00,Wunderground v.1.15,2013-03-18 09:36:00,
2013-03-18 05:41:00,32.1,28.7,29.95,East,88,2.0,-999.0,87,0.00,,,0.00,Wunderground v.1.15,2013-03-18 09:41:00,
2013-03-18 05:47:00,32.2,29.0,29.95,SE,134,2.0,-999.0,88,0.00,,,0.00,Wunderground v.1.15,2013-03-18 09:47:00,
2013-03-18 05:52:00,32.3,29.1,29.94,SSE,151,2.0,-999.0,88,0.00,,,0.01,Wunderground v.1.15,2013-03-18 09:52:00,
2013-03-18 05:58:00,32.4,29.2,29.94,SE,146,1.0,-999.0,88,0.00,,,0.01,Wunderground v.1.15,2013-03-18 09:58:00,
2013-03-18 06:04:00,32.5,29.6,29.94,SSE,161,1.0,-999.0,89,0.00,,,0.01,Wunderground v.1.15,2013-03-18 10:04:00,
2013-03-18 06:10:00,32.7,29.8,29.94,SSE,154,2.0,-999.0,89,0.04,,,0.02,Wunderground v.1.15,2013-03-18 10:10:00,
2013-03-18 06:16:00,32.8,29.9,29.94,SSE,163,2.0,-999.0,89,0.04,,,0.02,Wunderground v.1.15,2013-03-18 10:16:00,
2013-03-18 06:21:00,33.0,30.4,29.93,SE,125,1.0,-999.0,90,0.04,,,0.02,Wunderground v.1.15,2013-03-18 10:21:00,
2013-03-18 06:26:00,33.0,30.4,29.93,ESE,116,2.0,-999.0,90,0.00,,,0.03,Wunderground v.1.15,2013-03-18 10:26:00,
2013-03-18 06:32:00,33.2,30.6,29.93,SE,132,1.0,-999.0,90,0.08,,,0.04,Wunderground v.1.15,2013-03-18 10:32:00,
2013-03-18 06:38:00,33.3,30.7,29.92,SE,136,1.0,-999.0,90,0.08,,,0.04,Wunderground v.1.15,2013-03-18 10:38:00,
2013-03-18 06:44:00,33.4,30.8,29.91,SSE,153,1.0,-999.0,90,0.05,,,0.05,Wunderground v.1.15,2013-03-18 10:44:00,
2013-03-18 06:49:00,33.4,30.8,29.89,ESE,107,1.0,-999.0,90,0.12,,,0.06,Wunderground v.1.15,2013-03-18 10:49:00,
2013-03-18 06:55:00,33.5,31.2,29.90,SSE,168,1.0,-999.0,91,0.09,,,0.06,Wunderground v.1.15,2013-03-18 10:55:00,
2013-03-18 07:01:00,33.7,31.4,29.90,SSE,167,2.0,-999.0,91,0.08,,,0.07,Wunderground v.1.15,2013-03-18 11:01:00,
2013-03-18 07:07:00,33.8,31.5,29.90,SSE,147,2.0,-999.0,91,0.09,,,0.08,Wunderground v.1.15,2013-03-18 11:07:00,
2013-03-18 07:13:00,33.8,31.5,29.90,SE,128,1.0,-999.0,91,0.06,,,0.08,Wunderground v.1.15,2013-03-18 11:13:00,
2013-03-18 07:18:00,33.9,31.6,29.90,East,80,1.0,-999.0,91,0.04,,,0.08,Wunderground v.1.15,2013-03-18 11:18:00,
2013-03-18 07:23:00,34.0,31.6,29.91,SSE,155,1.0,-999.0,91,0.16,,,0.10,Wunderground v.1.15,2013-03-18 11:23:00,
2013-03-18 07:28:00,34.1,31.7,29.91,ESE,114,1.0,-999.0,91,0.08,,,0.10,Wunderground v.1.15,2013-03-18 11:28:00,
2013-03-18 07:34:00,34.1,31.7,29.90,SE,145,1.0,-999.0,91,0.06,,,0.11,Wunderground v.1.15,2013-03-18 11:34:00,
2013-03-18 07:40:00,34.2,32.1,29.89,ESE,115,1.0,-999.0,92,0.08,,,0.12,Wunderground v.1.15,2013-03-18 11:40:00,
2013-03-18 07:46:00,34.2,31.8,29.88,SSE,159,1.0,-999.0,91,0.08,,,0.12,Wunderground v.1.15,2013-03-18 11:46:00,
2013-03-18 07:51:00,34.2,32.1,29.88,ESE,105,1.0,-999.0,92,0.07,,,0.13,Wunderground v.1.15,2013-03-18 11:51:00,
2013-03-18 07:56:00,34.3,32.2,29.88,SSE,159,1.0,-999.0,92,0.12,,,0.14,Wunderground v.1.15,2013-03-18 11:56:00,
2013-03-18 08:02:00,34.4,32.3,29.88,West,275,2.0,-999.0,92,0.06,,,0.14,Wunderground v.1.15,2013-03-18 12:02:00,
2013-03-18 08:08:00,34.4,32.3,29.86,South,173,2.0,-999.0,92,0.04,,,0.15,Wunderground v.1.15,2013-03-18 12:08:00,
2013-03-18 08:13:00,34.5,32.4,29.86,SSE,165,2.0,-999.0,92,0.10,,,0.16,Wunderground v.1.15,2013-03-18 12:13:00,
2013-03-18 08:19:00,34.6,32.5,29.86,SSE,159,2.0,-999.0,92,0.09,,,0.16,Wunderground v.1.15,2013-03-18 12:19:00,
2013-03-18 08:25:00,34.6,32.5,29.85,SSE,161,3.0,-999.0,92,0.06,,,0.17,Wunderground v.1.15,2013-03-18 12:25:00,
2013-03-18 08:31:00,34.6,32.5,29.85,SE,144,3.0,-999.0,92,0.14,,,0.18,Wunderground v.1.15,2013-03-18 12:31:00,
2013-03-18 08:37:00,34.7,32.6,29.85,SSE,161,3.0,-999.0,92,0.18,,,0.19,Wunderground v.1.15,2013-03-18 12:37:00,
2013-03-18 08:42:00,34.8,32.7,29.85,ESE,111,4.0,-999.0,92,0.12,,,0.20,Wunderground v.1.15,2013-03-18 12:42:00,
2013-03-18 08:47:00,34.8,32.7,29.84,SE,128,4.0,-999.0,92,0.08,,,0.21,Wunderground v.1.15,2013-03-18 12:47:00,
2013-03-18 08:53:00,34.8,32.7,29.84,SSE,162,5.0,-999.0,92,0.14,,,0.23,Wunderground v.1.15,2013-03-18 12:53:00,
2013-03-18 08:59:00,34.8,32.7,29.84,SSE,165,4.0,-999.0,92,0.15,,,0.25,Wunderground v.1.15,2013-03-18 12:59:00,
2013-03-18 09:04:00,34.8,32.7,29.84,SSE,159,3.0,-999.0,92,0.17,,,0.27,Wunderground v.1.15,2013-03-18 13:04:00,
2013-03-18 09:10:00,35.0,32.9,29.84,SSE,161,5.0,-999.0,92,0.19,,,0.29,Wunderground v.1.15,2013-03-18 13:10:00,
2013-03-18 09:16:00,35.0,32.9,29.83,South,182,5.0,-999.0,92,0.35,,,0.32,Wunderground v.1.15,2013-03-18 13:16:00,
2013-03-18 09:21:00,34.9,32.8,29.83,SE,133,4.0,-999.0,92,0.36,,,0.34,Wunderground v.1.15,2013-03-18 13:21:00,
2013-03-18 09:27:00,34.9,32.8,29.82,SSE,159,4.0,-999.0,92,0.30,,,0.36,Wunderground v.1.15,2013-03-18 13:27:00,
2013-03-18 09:33:00,34.8,32.7,29.82,SSE,164,3.0,-999.0,92,0.23,,,0.38,Wunderground v.1.15,2013-03-18 13:33:00,
2013-03-18 09:39:00,34.8,32.7,29.82,SE,134,4.0,-999.0,92,0.19,,,0.40,Wunderground v.1.15,2013-03-18 13:39:00,
2013-03-18 09:45:00,34.8,32.7,29.82,East,90,5.0,-999.0,92,0.23,,,0.42,Wunderground v.1.15,2013-03-18 13:45:00,
2013-03-18 09:51:00,34.8,32.7,29.82,SE,140,4.0,-999.0,92,0.20,,,0.44,Wunderground v.1.15,2013-03-18 13:51:00,
2013-03-18 09:57:00,34.8,32.7,29.82,SSE,166,4.0,-999.0,92,0.18,,,0.46,Wunderground v.1.15,2013-03-18 13:57:00,
2013-03-18 10:02:00,34.8,32.7,29.81,East,80,4.0,-999.0,92,0.24,,,0.49,Wunderground v.1.15,2013-03-18 14:02:00,
2013-03-18 10:08:00,34.7,32.6,29.80,SE,134,3.0,-999.0,92,0.16,,,0.50,Wunderground v.1.15,2013-03-18 14:08:00,
2013-03-18 10:14:00,34.8,32.7,29.79,ESE,118,2.0,-999.0,92,0.18,,,0.52,Wunderground v.1.15,2013-03-18 14:14:00,
2013-03-18 10:20:00,34.8,32.7,29.79,East,79,3.0,-999.0,92,0.17,,,0.54,Wunderground v.1.15,2013-03-18 14:20:00,
2013-03-18 10:26:00,34.8,32.7,29.80,East,87,4.0,-999.0,92,0.15,,,0.56,Wunderground v.1.15,2013-03-18 14:26:00,
2013-03-18 10:32:00,34.9,32.8,29.79,SSE,161,5.0,-999.0,92,0.29,,,0.59,Wunderground v.1.15,2013-03-18 14:32:00,
2013-03-18 10:38:00,34.9,32.8,29.79,SSE,148,4.0,-999.0,92,0.28,,,0.62,Wunderground v.1.15,2013-03-18 14:38:00,
2013-03-18 10:44:00,35.0,32.9,29.78,SSE,158,4.0,-999.0,92,0.18,,,0.63,Wunderground v.1.15,2013-03-18 14:44:00,
2013-03-18 10:49:00,35.0,32.9,29.78,SE,131,5.0,-999.0,92,0.12,,,0.64,Wunderground v.1.15,2013-03-18 14:49:00,
2013-03-18 10:55:00,35.1,33.0,29.78,South,170,4.0,-999.0,92,0.06,,,0.64,Wunderground v.1.15,2013-03-18 14:55:00,
2013-03-18 11:01:00,35.1,33.0,29.78,South,178,4.0,-999.0,92,0.04,,,0.64,Wunderground v.1.15,2013-03-18 15:01:00,
2013-03-18 11:07:00,35.2,33.1,29.78,SSE,160,5.0,-999.0,92,0.00,,,0.64,Wunderground v.1.15,2013-03-18 15:07:00,
2013-03-18 11:13:00,35.2,33.1,29.78,East,88,6.0,-999.0,92,0.00,,,0.64,Wunderground v.1.15,2013-03-18 15:13:00,
2013-03-18 11:19:00,35.4,33.3,29.78,SSE,168,5.0,-999.0,92,0.00,,,0.64,Wunderground v.1.15,2013-03-18 15:19:00,
2013-03-18 11:24:00,35.5,33.4,29.78,ESE,116,5.0,-999.0,92,0.00,,,0.64,Wunderground v.1.15,2013-03-18 15:24:00,
2013-03-18 11:30:00,35.5,33.4,29.78,ESE,102,6.0,-999.0,92,0.00,,,0.64,Wunderground v.1.15,2013-03-18 15:30:00,
2013-03-18 11:35:00,35.6,33.5,29.78,SSE,159,5.0,-999.0,92,0.00,,,0.64,Wunderground v.1.15,2013-03-18 15:35:00,
2013-03-18 11:41:00,35.6,33.5,29.78,South,169,4.0,-999.0,92,0.00,,,0.64,Wunderground v.1.15,2013-03-18 15:41:00,
2013-03-18 11:47:00,35.7,33.6,29.78,SSE,159,4.0,-999.0,92,0.00,,,0.65,Wunderground v.1.15,2013-03-18 15:47:00,
2013-03-18 11:53:00,35.7,33.6,29.78,SSE,157,3.0,-999.0,92,0.00,,,0.65,Wunderground v.1.15,2013-03-18 15:53:00,
2013-03-18 11:58:00,35.7,33.6,29.78,SSE,163,3.0,-999.0,92,0.00,,,0.65,Wunderground v.1.15,2013-03-18 15:58:00,
2013-03-18 12:04:00,35.7,33.6,29.77,South,175,3.0,-999.0,92,0.00,,,0.65,Wunderground v.1.15,2013-03-18 16:04:00,
2013-03-18 12:10:00,35.7,33.6,29.77,SSE,157,4.0,-999.0,92,0.00,,,0.66,Wunderground v.1.15,2013-03-18 16:10:00,
2013-03-18 12:15:00,35.8,33.7,29.77,South,172,4.0,-999.0,92,0.00,,,0.66,Wunderground v.1.15,2013-03-18 16:15:00,
2013-03-18 12:21:00,35.9,33.8,29.77,South,178,4.0,-999.0,92,0.00,,,0.66,Wunderground v.1.15,2013-03-18 16:21:00,
2013-03-18 12:27:00,36.0,33.9,29.76,SSE,159,4.0,-999.0,92,0.00,,,0.66,Wunderground v.1.15,2013-03-18 16:27:00,
2013-03-18 12:32:00,36.1,34.3,29.76,SSE,157,4.0,-999.0,93,0.00,,,0.66,Wunderground v.1.15,2013-03-18 16:32:00,
2013-03-18 12:38:00,36.2,34.4,29.76,SSE,154,5.0,-999.0,93,0.00,,,0.66,Wunderground v.1.15,2013-03-18 16:38:00,
2013-03-18 12:43:00,36.2,34.4,29.76,SSE,148,6.0,-999.0,93,0.00,,,0.66,Wunderground v.1.15,2013-03-18 16:43:00,
2013-03-18 12:49:00,36.5,34.4,29.75,ESE,113,4.0,-999.0,92,0.00,,,0.66,Wunderground v.1.15,2013-03-18 16:49:00,
2013-03-18 12:54:00,36.6,34.5,29.75,SE,142,4.0,-999.0,92,0.00,,,0.66,Wunderground v.1.15,2013-03-18 16:54:00,
2013-03-18 13:00:00,36.7,34.9,29.75,SE,136,6.0,-999.0,93,0.00,,,0.66,Wunderground v.1.15,2013-03-18 17:00:00,
2013-03-18 13:05:00,36.8,35.0,29.75,East,99,5.0,-999.0,93,0.00,,,0.66,Wunderground v.1.15,2013-03-18 17:05:00,
2013-03-18 13:11:00,36.9,35.1,29.75,SSE,150,3.0,-999.0,93,0.00,,,0.66,Wunderground v.1.15,2013-03-18 17:11:00,
2013-03-18 13:17:00,36.9,35.1,29.74,South,170,4.0,-999.0,93,0.00,,,0.66,Wunderground v.1.15,2013-03-18 17:17:00,
2013-03-18 13:23:00,37.2,35.4,29.74,SSE,161,5.0,-999.0,93,0.00,,,0.66,Wunderground v.1.15,2013-03-18 17:23:00,
2013-03-18 13:29:00,37.5,35.7,29.74,SSE,164,4.0,-999.0,93,0.00,,,0.66,Wunderground v.1.15,2013-03-18 17:29:00,
2013-03-18 13:35:00,37.6,35.8,29.74,South,178,5.0,-999.0,93,0.00,,,0.66,Wunderground v.1.15,2013-03-18 17:35:00,
2013-03-18 13:41:00,37.9,36.1,29.73,SSE,157,5.0,-999.0,93,0.00,,,0.66,Wunderground v.1.15,2013-03-18 17:41:00,
2013-03-18 13:46:00,37.9,36.1,29.73,SSE,154,4.0,-999.0,93,0.00,,,0.66,Wunderground v.1.15,2013-03-18 17:46:00,
2013-03-18 13:51:00,38.0,36.2,29.72,South,179,4.0,-999.0,93,0.00,,,0.66,Wunderground v.1.15,2013-03-18 17:51:00,
2013-03-18 13:57:00,38.0,36.2,29.72,SSE,163,5.0,-999.0,93,0.00,,,0.66,Wunderground v.1.15,2013-03-18 17:57:00,
2013-03-18 14:03:00,38.1,36.3,29.71,SSE,162,4.0,-999.0,93,0.00,,,0.66,Wunderground v.1.15,2013-03-18 18:03:00,
2013-03-18 14:09:00,38.3,36.5,29.71,SSE,167,5.0,-999.0,93,0.00,,,0.66,Wunderground v.1.15,2013-03-18 18:09:00,
2013-03-18 14:14:00,38.3,36.5,29.70,SSE,148,6.0,-999.0,93,0.00,,,0.66,Wunderground v.1.15,2013-03-18 18:14:00,
2013-03-18 14:19:00,38.5,36.7,29.70,SSE,161,5.0,-999.0,93,0.00,,,0.66,Wunderground v.1.15,2013-03-18 18:19:00,
2013-03-18 14:24:00,38.6,36.8,29.70,South,174,6.0,-999.0,93,0.00,,,0.66,Wunderground v.1.15,2013-03-18 18:24:00,
2013-03-18 14:30:00,38.7,36.9,29.70,SSE,161,6.0,-999.0,93,0.00,,,0.66,Wunderground v.1.15,2013-03-18 18:30:00,
2013-03-18 14:35:00,38.8,36.9,29.69,South,171,6.0,-999.0,93,0.00,,,0.66,Wunderground v.1.15,2013-03-18 18:35:00,
2013-03-18 14:41:00,38.9,37.0,29.69,SSE,155,6.0,-999.0,93,0.00,,,0.66,Wunderground v.1.15,2013-03-18 18:41:00,
2013-03-18 14:47:00,39.0,37.1,29.69,SSE,153,6.0,-999.0,93,0.00,,,0.67,Wunderground v.1.15,2013-03-18 18:47:00,
2013-03-18 14:53:00,39.1,37.2,29.68,SSE,162,5.0,-999.0,93,0.00,,,0.67,Wunderground v.1.15,2013-03-18 18:53:00,
2013-03-18 14:59:00,39.3,37.4,29.67,SSE,158,5.0,-999.0,93,0.00,,,0.67,Wunderground v.1.15,2013-03-18 18:59:00,
2013-03-18 15:05:00,39.5,37.6,29.67,SSE,166,5.0,-999.0,93,0.00,,,0.67,Wunderground v.1.15,2013-03-18 19:05:00,
2013-03-18 15:11:00,39.6,37.7,29.67,SSE,165,6.0,-999.0,93,0.00,,,0.67,Wunderground v.1.15,2013-03-18 19:11:00,
2013-03-18 15:17:00,39.8,37.9,29.66,SSE,153,6.0,-999.0,93,0.00,,,0.67,Wunderground v.1.15,2013-03-18 19:17:00,
2013-03-18 15:23:00,39.8,37.9,29.66,SSE,168,5.0,-999.0,93,0.00,,,0.67,Wunderground v.1.15,2013-03-18 19:23:00,
2013-03-18 15:28:00,40.0,38.1,29.66,SSE,163,5.0,-999.0,93,0.00,,,0.67,Wunderground v.1.15,2013-03-18 19:28:00,
2013-03-18 15:33:00,40.1,38.2,29.66,SSE,163,6.0,-999.0,93,0.00,,,0.67,Wunderground v.1.15,2013-03-18 19:33:00,
2013-03-18 15:39:00,40.2,38.3,29.65,South,172,5.0,-999.0,93,0.00,,,0.67,Wunderground v.1.15,2013-03-18 19:39:00,
2013-03-18 15:45:00,40.4,38.5,29.64,SSE,163,6.0,-999.0,93,0.00,,,0.68,Wunderground v.1.15,2013-03-18 19:45:00,
2013-03-18 15:51:00,40.6,38.7,29.63,SSE,155,6.0,-999.0,93,0.00,,,0.68,Wunderground v.1.15,2013-03-18 19:51:00,
2013-03-18 15:57:00,40.8,38.9,29.63,SSE,165,6.0,-999.0,93,0.00,,,0.68,Wunderground v.1.15,2013-03-18 19:57:00,
2013-03-18 16:03:00,41.0,39.1,29.63,SSE,155,7.0,-999.0,93,0.00,,,0.68,Wunderground v.1.15,2013-03-18 20:03:00,
2013-03-18 16:09:00,41.2,39.3,29.63,SSE,157,8.0,-999.0,93,0.00,,,0.68,Wunderground v.1.15,2013-03-18 20:09:00,
2013-03-18 16:15:00,41.3,39.4,29.63,South,173,8.0,-999.0,93,0.00,,,0.68,Wunderground v.1.15,2013-03-18 20:15:00,
2013-03-18 16:21:00,41.5,39.6,29.63,SSE,165,8.0,-999.0,93,0.00,,,0.68,Wunderground v.1.15,2013-03-18 20:21:00,
2013-03-18 16:27:00,41.6,39.7,29.62,SSE,165,7.0,-999.0,93,0.00,,,0.68,Wunderground v.1.15,2013-03-18 20:27:00,
2013-03-18 16:32:00,41.8,39.9,29.62,SSE,159,6.0,-999.0,93,0.00,,,0.68,Wunderground v.1.15,2013-03-18 20:32:00,
2013-03-18 16:38:00,42.1,40.2,29.62,SSE,168,4.0,-999.0,93,0.00,,,0.68,Wunderground v.1.15,2013-03-18 20:38:00,
2013-03-18 16:43:00,42.3,40.4,29.61,South,171,4.0,-999.0,93,0.00,,,0.68,Wunderground v.1.15,2013-03-18 20:43:00,
2013-03-18 16:49:00,42.5,40.6,29.62,South,180,4.0,-999.0,93,0.00,,,0.69,Wunderground v.1.15,2013-03-18 20:49:00,
2013-03-18 16:55:00,42.7,40.8,29.62,SSE,155,4.0,-999.0,93,0.00,,,0.69,Wunderground v.1.15,2013-03-18 20:55:00,
2013-03-18 17:00:00,42.9,41.0,29.61,ESE,110,3.0,-999.0,93,0.00,,,0.69,Wunderground v.1.15,2013-03-18 21:00:00,
2013-03-18 17:05:00,43.1,41.2,29.62,South,184,2.0,-999.0,93,0.00,,,0.69,Wunderground v.1.15,2013-03-18 21:05:00,
2013-03-18 17:11:00,43.3,41.4,29.61,SSE,159,2.0,-999.0,93,0.00,,,0.69,Wunderground v.1.15,2013-03-18 21:11:00,
2013-03-18 17:17:00,43.5,41.6,29.61,SSE,164,3.0,-999.0,93,0.00,,,0.69,Wunderground v.1.15,2013-03-18 21:17:00,
2013-03-18 17:23:00,43.8,41.9,29.61,SSE,161,4.0,-999.0,93,0.00,,,0.69,Wunderground v.1.15,2013-03-18 21:23:00,
2013-03-18 17:29:00,44.1,42.2,29.61,SSE,167,5.0,-999.0,93,0.00,,,0.69,Wunderground v.1.15,2013-03-18 21:29:00,
2013-03-18 17:35:00,44.5,42.6,29.60,South,173,6.0,-999.0,93,0.00,,,0.69,Wunderground v.1.15,2013-03-18 21:35:00,
2013-03-18 17:40:00,44.9,43.0,29.60,South,169,7.0,-999.0,93,0.00,,,0.69,Wunderground v.1.15,2013-03-18 21:40:00,
2013-03-18 17:46:00,45.1,43.2,29.60,South,175,7.0,-999.0,93,0.00,,,0.69,Wunderground v.1.15,2013-03-18 21:46:00,
2013-03-18 17:52:00,45.0,43.1,29.60,SSE,168,6.0,-999.0,93,0.00,,,0.69,Wunderground v.1.15,2013-03-18 21:52:00,
2013-03-18 17:58:00,45.0,43.1,29.60,South,171,5.0,-999.0,93,0.00,,,0.69,Wunderground v.1.15,2013-03-18 21:58:00,
2013-03-18 18:04:00,44.9,43.0,29.60,SSE,147,4.0,-999.0,93,0.00,,,0.70,Wunderground v.1.15,2013-03-18 22:04:00,
2013-03-18 18:09:00,44.9,43.0,29.60,SSE,158,4.0,-999.0,93,0.00,,,0.70,Wunderground v.1.15,2013-03-18 22:09:00,
2013-03-18 18:14:00,45.0,43.1,29.60,SSE,157,4.0,-999.0,93,0.00,,,0.70,Wunderground v.1.15,2013-03-18 22:14:00,
2013-03-18 18:19:00,44.9,43.0,29.59,SSE,153,3.0,-999.0,93,0.00,,,0.70,Wunderground v.1.15,2013-03-18 22:19:00,
2013-03-18 18:25:00,44.9,43.0,29.59,South,188,3.0,-999.0,93,0.00,,,0.70,Wunderground v.1.15,2013-03-18 22:25:00,
2013-03-18 18:31:00,45.0,43.1,29.59,SSE,159,3.0,-999.0,93,0.00,,,0.70,Wunderground v.1.15,2013-03-18 22:31:00,
2013-03-18 18:37:00,45.0,43.1,29.60,South,180,3.0,-999.0,93,0.00,,,0.70,Wunderground v.1.15,2013-03-18 22:37:00,
2013-03-18 18:42:00,45.1,43.2,29.59,SSE,163,4.0,-999.0,93,0.00,,,0.70,Wunderground v.1.15,2013-03-18 22:42:00,
2013-03-18 18:47:00,45.2,43.3,29.59,SSE,163,4.0,-999.0,93,0.00,,,0.70,Wunderground v.1.15,2013-03-18 22:47:00,
2013-03-18 18:52:00,45.2,43.3,29.59,SSE,163,4.0,-999.0,93,0.00,,,0.70,Wunderground v.1.15,2013-03-18 22:52:00,
2013-03-18 18:58:00,45.3,43.4,29.58,SSE,154,4.0,-999.0,93,0.00,,,0.70,Wunderground v.1.15,2013-03-18 22:58:00,
2013-03-18 19:03:00,45.3,43.4,29.59,SE,133,4.0,-999.0,93,0.00,,,0.70,Wunderground v.1.15,2013-03-18 23:03:00,
2013-03-18 19:09:00,45.5,43.6,29.59,SSE,163,5.0,-999.0,93,0.00,,,0.70,Wunderground v.1.15,2013-03-18 23:09:00,
2013-03-18 19:15:00,45.6,43.7,29.59,SSE,165,5.0,-999.0,93,0.00,,,0.70,Wunderground v.1.15,2013-03-18 23:15:00,
2013-03-18 19:20:00,45.8,43.9,29.59,South,175,5.0,-999.0,93,0.00,,,0.70,Wunderground v.1.15,2013-03-18 23:20:00,
2013-03-18 19:26:00,45.9,44.0,29.59,South,175,5.0,-999.0,93,0.00,,,0.70,Wunderground v.1.15,2013-03-18 23:26:00,
2013-03-18 19:32:00,46.0,44.1,29.59,South,181,5.0,-999.0,93,0.00,,,0.70,Wunderground v.1.15,2013-03-18 23:32:00,
2013-03-18 19:38:00,46.2,44.3,29.58,South,176,6.0,-999.0,93,0.00,,,0.70,Wunderground v.1.15,2013-03-18 23:38:00,
2013-03-18 19:43:00,46.4,44.5,29.58,South,169,6.0,-999.0,93,0.00,,,0.70,Wunderground v.1.15,2013-03-18 23:43:00,
2013-03-18 19:49:00,46.5,44.6,29.58,South,169,6.0,-999.0,93,0.00,,,0.70,Wunderground v.1.15,2013-03-18 23:49:00,
2013-03-18 19:55:00,46.5,44.6,29.58,SSE,168,6.0,-999.0,93,0.00,,,0.70,Wunderground v.1.15,2013-03-18 23:55:00,
2013-03-18 20:00:00,46.6,44.7,29.59,South,175,7.0,-999.0,93,0.00,,,0.70,Wunderground v.1.15,2013-03-19 00:00:00,
2013-03-18 20:06:00,46.8,44.9,29.58,South,175,6.0,-999.0,93,0.00,,,0.70,Wunderground v.1.15,2013-03-19 00:06:00,
2013-03-18 20:12:00,47.0,45.1,29.59,SSW,194,6.0,-999.0,93,0.00,,,0.70,Wunderground v.1.15,2013-03-19 00:12:00,
2013-03-18 20:17:00,47.1,45.2,29.59,South,183,5.0,-999.0,93,0.00,,,0.70,Wunderground v.1.15,2013-03-19 00:17:00,
2013-03-18 20:23:00,47.1,45.2,29.59,SSW,213,5.0,-999.0,93,0.00,,,0.70,Wunderground v.1.15,2013-03-19 00:23:00,
2013-03-18 20:29:00,47.3,45.4,29.59,South,186,5.0,-999.0,93,0.00,,,0.70,Wunderground v.1.15,2013-03-19 00:29:00,
2013-03-18 20:34:00,47.4,45.5,29.60,South,186,5.0,-999.0,93,0.00,,,0.70,Wunderground v.1.15,2013-03-19 00:34:00,
2013-03-18 20:40:00,47.5,45.6,29.61,SW,219,4.0,-999.0,93,0.00,,,0.71,Wunderground v.1.15,2013-03-19 00:40:00,
2013-03-18 20:45:00,47.5,45.6,29.60,SSW,212,3.0,-999.0,93,0.00,,,0.71,Wunderground v.1.15,2013-03-19 00:45:00,
2013-03-18 20:50:00,47.6,45.7,29.60,South,186,3.0,-999.0,93,0.06,,,0.72,Wunderground v.1.15,2013-03-19 00:50:00,
2013-03-18 20:57:00,47.7,45.8,29.60,SSW,194,3.0,-999.0,93,0.06,,,0.72,Wunderground v.1.15,2013-03-19 00:57:00,
2013-03-18 21:03:00,47.9,46.0,29.60,SSW,193,5.0,-999.0,93,0.04,,,0.72,Wunderground v.1.15,2013-03-19 01:03:00,
2013-03-18 21:17:00,47.8,45.9,29.61,SSW,200,4.0,-999.0,93,0.00,,,0.73,Wunderground v.1.15,2013-03-19 01:17:00,
2013-03-18 21:22:00,47.8,45.9,29.61,South,189,4.0,-999.0,93,0.00,,,0.73,Wunderground v.1.15,2013-03-19 01:22:00,
2013-03-18 21:27:00,47.7,45.8,29.61,SSW,192,2.0,-999.0,93,0.04,,,0.74,Wunderground v.1.15,2013-03-19 01:27:00,
2013-03-18 21:33:00,47.7,45.8,29.61,South,191,3.0,-999.0,93,0.04,,,0.74,Wunderground v.1.15,2013-03-19 01:33:00,
2013-03-18 21:38:00,47.7,45.8,29.61,SW,225,3.0,-999.0,93,0.04,,,0.74,Wunderground v.1.15,2013-03-19 01:38:00,
2013-03-18 21:44:00,47.9,46.0,29.61,SSW,207,3.0,-999.0,93,0.04,,,0.74,Wunderground v.1.15,2013-03-19 01:44:00,
2013-03-18 21:49:00,48.0,46.1,29.61,SSW,195,3.0,-999.0,93,0.00,,,0.74,Wunderground v.1.15,2013-03-19 01:49:00,
2013-03-18 21:54:00,48.2,46.3,29.60,SSW,197,2.0,-999.0,93,0.00,,,0.74,Wunderground v.1.15,2013-03-19 01:54:00,
2013-03-18 22:00:00,48.4,46.5,29.60,SW,236,3.0,-999.0,93,0.00,,,0.74,Wunderground v.1.15,2013-03-19 02:00:00,
2013-03-18 22:05:00,48.4,46.5,29.60,SSW,204,3.0,-999.0,93,0.00,,,0.74,Wunderground v.1.15,2013-03-19 02:05:00,
2013-03-18 22:10:00,48.4,46.5,29.60,SW,226,2.0,-999.0,93,0.00,,,0.74,Wunderground v.1.15,2013-03-19 02:10:00,
2013-03-18 22:16:00,48.5,46.6,29.60,SW,217,2.0,-999.0,93,0.00,,,0.74,Wunderground v.1.15,2013-03-19 02:16:00,
2013-03-18 22:21:00,48.5,46.6,29.60,WSW,239,2.0,-999.0,93,0.00,,,0.74,Wunderground v.1.15,2013-03-19 02:21:00,
2013-03-18 22:27:00,48.5,46.6,29.60,WSW,247,2.0,-999.0,93,0.00,,,0.74,Wunderground v.1.15,2013-03-19 02:27:00,
2013-03-18 22:33:00,48.5,46.6,29.61,West,268,2.0,-999.0,93,0.00,,,0.74,Wunderground v.1.15,2013-03-19 02:33:00,
2013-03-18 22:38:00,48.5,46.6,29.61,SW,225,2.0,-999.0,93,0.00,,,0.74,Wunderground v.1.15,2013-03-19 02:38:00,
2013-03-18 22:44:00,48.5,46.3,29.61,SSW,199,4.0,-999.0,92,0.00,,,0.74,Wunderground v.1.15,2013-03-19 02:44:00,
2013-03-18 22:50:00,48.5,46.3,29.62,SW,217,3.0,-999.0,92,0.00,,,0.74,Wunderground v.1.15,2013-03-19 02:50:00,
2013-03-18 22:56:00,48.4,46.2,29.62,SSW,197,1.0,-999.0,92,0.00,,,0.74,Wunderground v.1.15,2013-03-19 02:56:00,
2013-03-18 23:01:00,48.3,45.8,29.62,WSW,250,3.0,-999.0,91,0.00,,,0.74,Wunderground v.1.15,2013-03-19 03:01:00,
2013-03-18 23:07:00,48.4,45.9,29.62,WSW,254,4.0,-999.0,91,0.00,,,0.74,Wunderground v.1.15,2013-03-19 03:07:00,